Location: Delettes
(50.6178°N, 2.2123°E)
Time: 19:53:30
(UTC+00:00)

STARLINK-35 - Pass Details

Date: 27 February 2020
Orbit: 529 x 530 km, 53.0° (Epoch: 05 April)

Event Time Altitude Azimuth Distance (km) Brightness Sun altitude
Rises 19:25:17 0° 282° (WNW) 2,671 8.8 -19.3°
Reaches altitude 10° 19:27:31 10° 285° (WNW) 1,781 7.4 -19.6°
Maximum altitude 19:31:32 65° 8° (N) 589 3.7 -20.2°
Enters shadow 19:32:09 55° 55° (NE) 644 3.6 -20.3°
